TimeMDT,TemperatureF,Dew PointF,Humidity,Sea Level PressureIn,VisibilityMPH,Wind Direction,Wind SpeedMPH,Gust SpeedMPH,PrecipitationIn,Events,Conditions,WindDirDegrees,DateUTC
12:53 AM,42.1,30.0,62,30.10,10.0,South,5.8,-,N/A,,Clear,170,2012-11-03 06:53:00
1:53 AM,41.0,30.0,65,30.11,10.0,South,8.1,-,N/A,,Clear,180,2012-11-03 07:53:00
2:53 AM,42.1,30.0,62,30.10,10.0,South,9.2,-,N/A,,Clear,170,2012-11-03 08:53:00
3:53 AM,41.0,30.0,65,30.11,10.0,South,9.2,-,N/A,,Clear,170,2012-11-03 09:53:00
4:53 AM,39.0,28.9,67,30.12,10.0,South,8.1,-,N/A,,Clear,180,2012-11-03 10:53:00
5:53 AM,39.0,28.9,67,30.14,10.0,South,8.1,-,N/A,,Clear,170,2012-11-03 11:53:00
6:53 AM,37.9,28.9,70,30.16,10.0,South,8.1,-,N/A,,Clear,180,2012-11-03 12:53:00
7:53 AM,37.9,28.9,70,30.17,10.0,South,8.1,-,N/A,,Clear,170,2012-11-03 13:53:00
8:53 AM,39.9,28.9,65,30.20,10.0,South,6.9,-,N/A,,Clear,180,2012-11-03 14:53:00
9:53 AM,46.0,30.0,54,30.20,10.0,Calm,Calm,-,N/A,,Clear,0,2012-11-03 15:53:00
10:53 AM,50.0,30.0,46,30.21,10.0,NNE,6.9,-,N/A,,Clear,30,2012-11-03 16:53:00
11:53 AM,53.1,30.0,41,30.21,10.0,ENE,4.6,-,N/A,,Clear,70,2012-11-03 17:53:00
12:53 PM,55.0,30.0,38,30.20,10.0,NNE,3.5,-,N/A,,Clear,20,2012-11-03 18:53:00
1:53 PM,57.9,30.0,35,30.18,10.0,Calm,Calm,-,N/A,,Clear,0,2012-11-03 19:53:00
2:53 PM,59.0,33.1,38,30.17,10.0,WNW,3.5,-,N/A,,Clear,300,2012-11-03 20:53:00
3:53 PM,60.1,30.9,33,30.15,8.0,Calm,Calm,-,N/A,,Clear,0,2012-11-03 21:53:00
4:53 PM,59.0,30.9,35,30.16,10.0,Calm,Calm,-,N/A,,Clear,0,2012-11-03 22:53:00
5:53 PM,55.9,36.0,47,30.18,10.0,West,4.6,-,N/A,,Clear,270,2012-11-03 23:53:00
6:53 PM,51.1,37.0,59,30.20,10.0,WNW,3.5,-,N/A,,Clear,300,2012-11-04 00:53:00
7:53 PM,51.1,37.0,59,30.21,10.0,Calm,Calm,-,N/A,,Clear,0,2012-11-04 01:53:00
8:53 PM,46.9,37.0,68,30.22,10.0,South,5.8,-,N/A,,Clear,180,2012-11-04 02:53:00
9:53 PM,45.0,34.0,65,30.22,10.0,South,8.1,-,N/A,,Clear,170,2012-11-04 03:53:00
10:53 PM,44.1,30.9,60,30.22,10.0,South,9.2,-,N/A,,Clear,170,2012-11-04 04:53:00
11:53 PM,44.1,30.0,58,30.22,10.0,South,9.2,-,N/A,,Clear,170,2012-11-04 05:53:00